{"data":{"norad_id":57719,"epoch":"2026-05-25T00:28:58.260000Z","epoch_age_seconds":76337,"freshness":"FRESH","line1":"1 57719U 23129X   26145.02011875  .00002221  00000+0  90212-4 0  9992","line2":"2 57719  42.9996  47.0520 0000942 262.2691  97.8054 15.27574036152204","mean_motion":15.27574036,"eccentricity":9.42e-5,"inclination_deg":42.9996,"raan_deg":47.052,"arg_perigee_deg":262.2691,"mean_anomaly_deg":97.8054,"bstar":9.0212e-5,"rev_number":15220,"period_min":94.267116752697,"perigee_km":482.42062904678,"apogee_km":483.7132798718,"semimajor_km":6861.2039544593,"source":"CELESTRAK","updated_at":"2026-05-25T13:38:18.375158Z"}}